Location: Unspecified
(56.5167°N, 0.0000°E)
Time: 22:29:50
(UTC+02:00)

Cosmos 1674 - Visible Passes

Search period start: 28 September 2016 00:00
Search period end: 08 October 2016 00:00
Orbit: 501 x 524 km, 82.5° (Epoch: 28 September)

Date Brightness Start Highest point End Pass type
(mag) Time Alt. Az. Time Alt. Az. Time Alt. Az.
28 Sep 2.7 20:52:20 10° N 20:56:12 61° ENE 21:00:03 10° SSE visible
28 Sep 5.5 22:28:47 10° NW 22:31:28 18° W 22:34:08 10° SW visible
29 Sep 2.9 20:36:21 10° N 20:40:10 51° ENE 20:43:58 10° SSE visible
29 Sep 5.3 22:12:34 10° NW 22:15:32 21° W 22:18:29 10° SW visible
30 Sep 3.1 20:20:23 10° N 20:24:07 43° ENE 20:27:50 10° SE visible
30 Sep 5.0 21:56:23 10° NNW 21:59:35 25° W 22:02:46 10° SW visible
01 Oct 4.8 21:40:14 10° NNW 21:43:38 29° W 21:47:00 10° SSW visible
02 Oct 4.5 21:24:07 10° NNW 21:27:40 34° W 21:31:11 10° SSW visible
03 Oct 4.2 21:08:00 10° NNW 21:11:41 40° W 21:15:20 10° SSW visible
04 Oct 3.8 20:51:55 10° NNW 20:55:41 48° W 20:59:27 10° S visible
05 Oct 3.4 20:35:51 10° NNW 20:39:41 58° W 20:43:30 10° S visible
06 Oct 3.1 20:19:46 10° NNW 20:23:41 70° W 20:27:32 10° S visible
07 Oct 2.8 20:03:43 10° NNW 20:07:39 83° WSW 20:11:32 10° S visible
07 Oct 6.2 21:41:11 10° WNW 21:42:37 12° W 21:44:02 10° WSW visible
